Starlink 35067

operational
NORAD ID: 65527 Int'l Des: 2025-200 Owner: SPXS Country: US Constellation: starlink
LEOCIRCULARRETROGRADE

About Starlink 35067

Description loading...

Live Position

Loading 3D Globe...

Upcoming Passes

Altitude History

Altitude vs Time

uPlot chart will show altitude changes over time

Two-Line Element Set

1 65527U 25200H 25303.66141844 .00042717 00000-0 10902-2 0 9996
2 65527 97.6076 11.2856 0001529 63.5637 296.5765 15.39375861 9548
Epoch: Oct 30, 2025 • Age: 14 hours

Current Status

Altitude 469.2 km
Velocity 7.63 km/s
Sub-Earth Point -53.76°S, 102.65°W
Launch Date Sep 6, 2025
Age 0.1 years
Type internet

Technical Details

Classification Payload
Mass 575.00 kg
Dry Mass 530.00 kg
Total Mass 575.00 kg
Length 0.30 m
Diameter 4.10 m
Span 29.00 m
Shape Box + pan
Manufacturer SPXS
Bus Type Starlink V2MO
Phase Status In Orbit
Owner/State SPXS/US

Large Constellations

Loading constellations...